Weather History for KBCK - August, 2014

Change the Weather History Date:

Tuesday, August 26, 2014

  Actual Average (KLSE) Record (KLSE)
Temperature  
Mean Temperature 65 °F 70 °F  
Max Temperature 73 °F 80 °F 97 °F (2013)
Min Temperature 57 °F 60 °F 41 °F (1934)
Degree Days  
Heating Degree Days 0 1  
Month to date heating degree days 6  
Since 1 July heating degree days 11  
Cooling Degree Days 0 6  
Month to date cooling degree days 188  
Year to date cooling degree days 675  
Growing Degree Days 15 (Base 50)    
Moisture  
Dew Point 55 °F    
Average Humidity 74    
Maximum Humidity 100    
Minimum Humidity 44    
Precipitation  
Precipitation 0.00 in 0.13 in 2.16 in (1959)
Month to date precipitation 3.64  
Year to date precipitation 23.31  
Snow  
Snow 0.00 in 0.00 in 0.00 in (2002)
Month to date snowfall 0.0  
Since 1 July snowfall 0.0  
Snow Depth -    
Sea Level Pressure  
Sea Level Pressure 30.12 in    
Wind  
Wind Speed 3 mph (WNW)    
Max Wind Speed 10 mph    
Max Gust Speed 18 mph    
Visibility 10 miles    
Events      
T = Trace of Precipitation, MM = Missing Value Source: NWS Daily Summary

Daily Weather History Graph

Daily Weather History Graph

Search for Another Location

Airport or City:

Trip Planner

Search our weather history database for the weather conditions in past years. The results will help you decide how hot, cold, wet, or windy it might be!

Date:

Astronomy

Aug. 26, 2014 Rise Set
Actual Time 6:19 AM CDT 7:50 PM CDT
Civil Twilight 5:49 AM CDT 8:20 PM CDT
Nautical Twilight 5:12 AM CDT 8:56 PM CDT
Astronomical Twilight 4:32 AM CDT 9:36 PM CDT
Moon 7:24 AM CDT (8/26) 8:06 PM CDT (8/26)
Length of Visible Light 14h 31m
Length of Day
13h 30m
New Moon, 1% of the Moon is Illuminated
Aug 26
New Moon
Sep 2
First Quarter
Sep 8
Full
Sep 15
Last Quarter
Sep 24
New

Hourly Weather History & Observations

Time (CDT) Temp. Dew Point Humidity Pressure Visibility Wind Dir Wind Speed Gust Speed Precip Events Conditions
12:15 AM 69.3 °F 57.6 °F 66% 30.02 in 10.0 mi WNW 3.5 mph - N/A   Clear
12:35 AM 68.4 °F 57.6 °F 68% 30.04 in 10.0 mi WNW 5.8 mph - N/A   Clear
12:55 AM 67.5 °F 57.6 °F 70% 30.04 in 10.0 mi Calm Calm - N/A   Mostly Cloudy
1:15 AM 66.4 °F 57.6 °F 73% 30.05 in 10.0 mi WSW 3.5 mph - N/A   Scattered Clouds
1:35 AM 65.7 °F 58.1 °F 77% 30.05 in 10.0 mi West 3.5 mph - N/A   Mostly Cloudy
1:55 AM 64.4 °F 59.0 °F 83% 30.05 in 10.0 mi Calm Calm - N/A   Mostly Cloudy
2:15 AM 62.6 °F 60.3 °F 92% 30.04 in 10.0 mi Calm Calm - N/A   Scattered Clouds
2:35 AM 60.8 °F 59.7 °F 96% 30.04 in 10.0 mi Calm Calm - N/A   Clear
2:55 AM 59.9 °F 59.5 °F 99% 30.04 in 10.0 mi Calm Calm - N/A   Clear
3:15 AM 58.8 °F 58.8 °F 100% 30.05 in 10.0 mi Calm Calm - N/A   Scattered Clouds
3:35 AM 58.5 °F 58.5 °F 100% 30.06 in 10.0 mi Calm Calm - N/A   Mostly Cloudy
3:55 AM 59.9 °F 59.4 °F 98% 30.06 in 10.0 mi Calm Calm - N/A   Mostly Cloudy
4:15 AM 60.1 °F 59.2 °F 97% 30.06 in 10.0 mi Calm Calm - N/A   Scattered Clouds
4:35 AM 60.1 °F 58.8 °F 96% 30.07 in 10.0 mi Calm Calm - N/A   Mostly Cloudy
4:55 AM 58.1 °F 58.1 °F 100% 30.07 in 10.0 mi Calm Calm - N/A   Mostly Cloudy
5:15 AM 58.5 °F 58.5 °F 100% 30.08 in 10.0 mi NNW 3.5 mph - N/A   Mostly Cloudy
5:35 AM 59.0 °F 58.3 °F 97% 30.09 in 10.0 mi Calm Calm - N/A   Mostly Cloudy
5:55 AM 58.6 °F 58.6 °F 100% 30.09 in 10.0 mi Calm Calm - N/A   Overcast
6:15 AM 58.6 °F 58.6 °F 100% 30.10 in 10.0 mi Calm Calm - N/A   Overcast
6:35 AM 59.0 °F 59.0 °F 100% 30.12 in 10.0 mi Calm Calm - N/A   Overcast
6:55 AM 59.2 °F 59.2 °F 100% 30.13 in 10.0 mi Calm Calm - N/A   Scattered Clouds
7:15 AM 59.4 °F 59.4 °F 100% 30.15 in 10.0 mi West 3.5 mph - N/A   Scattered Clouds
7:35 AM 61.2 °F 60.1 °F 96% 30.17 in 10.0 mi West 5.8 mph - N/A   Scattered Clouds
7:55 AM 61.5 °F 55.2 °F 80% 30.18 in 10.0 mi West 4.6 mph - N/A   Mostly Cloudy
8:15 AM 61.7 °F 54.0 °F 76% 30.20 in 10.0 mi West 9.2 mph - N/A   Overcast
8:35 AM 61.7 °F 53.1 °F 73% 30.19 in 10.0 mi WNW 5.8 mph - N/A   Overcast
8:55 AM 61.7 °F 52.0 °F 70% 30.19 in 10.0 mi NW 5.8 mph - N/A   Overcast
9:15 AM 61.7 °F 52.0 °F 70% 30.17 in 10.0 mi NW 6.9 mph - N/A   Overcast
9:35 AM 62.1 °F 51.6 °F 69% 30.17 in 10.0 mi NW 5.8 mph - N/A   Overcast
9:55 AM 61.9 °F 51.1 °F 68% 30.18 in 10.0 mi WNW 5.8 mph - N/A   Mostly Cloudy
10:15 AM 63.0 °F 50.4 °F 63% 30.19 in 10.0 mi NNW 4.6 mph - N/A   Scattered Clouds
10:35 AM 63.5 °F 49.5 °F 60% 30.17 in 10.0 mi NNW 4.6 mph - N/A   Scattered Clouds
10:55 AM 64.0 °F 50.4 °F 61% 30.16 in 10.0 mi NW 5.8 mph - N/A   Scattered Clouds
11:15 AM 64.6 °F 51.1 °F 62% 30.14 in 10.0 mi NNW 8.1 mph - N/A   Clear
11:35 AM 65.3 °F 50.5 °F 59% 30.13 in 10.0 mi NNW 8.1 mph - N/A   Clear
11:55 AM 66.0 °F 51.1 °F 59% 30.11 in 10.0 mi North 10.4 mph 18.4 mph N/A   Clear
12:15 PM 65.3 °F 50.9 °F 60% 30.13 in 10.0 mi North 6.9 mph 18.4 mph N/A   Clear
12:35 PM 66.0 °F 50.9 °F 58% 30.13 in 10.0 mi NNW 6.9 mph - N/A   Clear
12:55 PM 66.4 °F 51.4 °F 59% 30.15 in 10.0 mi WNW 5.8 mph - N/A   Scattered Clouds
1:15 PM 67.3 °F 50.9 °F 56% 30.16 in 10.0 mi NNW 4.6 mph - N/A   Clear
1:35 PM 68.0 °F 50.0 °F 52% 30.15 in 10.0 mi Calm Calm - N/A   Clear
1:55 PM 69.1 °F 52.0 °F 54% 30.15 in 10.0 mi North 3.5 mph - N/A   Clear
2:15 PM 70.0 °F 51.3 °F 51% 30.14 in 10.0 mi North 6.9 mph - N/A   Scattered Clouds
2:35 PM 70.5 °F 51.8 °F 51% 30.14 in 10.0 mi NW 5.8 mph - N/A   Clear
2:55 PM 71.6 °F 50.9 °F 48% 30.14 in 10.0 mi West 3.5 mph - N/A   Clear
3:15 PM 71.2 °F 51.4 °F 50% 30.14 in 10.0 mi NW 6.9 mph - N/A   Clear
3:35 PM 71.6 °F 51.3 °F 49% 30.14 in 10.0 mi WSW 3.5 mph - N/A   Clear
3:55 PM 72.5 °F 52.0 °F 48% 30.14 in 10.0 mi West 6.9 mph - N/A   Clear
4:15 PM 72.1 °F 51.8 °F 49% 30.13 in 10.0 mi SW 4.6 mph - N/A   Clear
4:35 PM 73.6 °F 50.2 °F 44% 30.13 in 10.0 mi West 10.4 mph - N/A   Clear
4:55 PM 73.4 °F 50.9 °F 45% 30.14 in 10.0 mi West 9.2 mph - N/A   Clear
5:15 PM 73.4 °F 51.1 °F 45% 30.13 in 10.0 mi WNW 5.8 mph - N/A   Clear
5:35 PM 72.9 °F 51.8 °F 47% 30.13 in 10.0 mi WSW 4.6 mph - N/A   Clear
5:55 PM 71.8 °F 50.2 °F 46% 30.14 in 10.0 mi West 3.5 mph - N/A   Clear
6:15 PM 71.2 °F 54.0 °F 54% 30.13 in 10.0 mi WSW 3.5 mph - N/A   Clear
6:35 PM 69.8 °F 55.2 °F 60% 30.13 in 10.0 mi Calm Calm - N/A   Clear
6:55 PM 69.8 °F 54.7 °F 59% 30.13 in 10.0 mi Calm Calm - N/A   Clear
7:15 PM 68.9 °F 54.7 °F 60% 30.13 in 10.0 mi Calm Calm - N/A   Clear
7:35 PM 67.3 °F 55.6 °F 66% 30.13 in 10.0 mi WNW 3.5 mph - N/A   Clear
7:55 PM 65.5 °F 55.9 °F 71% 30.13 in 10.0 mi NW 4.6 mph - N/A   Clear
8:15 PM 64.9 °F 54.9 °F 70% 30.13 in 10.0 mi Calm Calm - N/A   Clear
8:35 PM 64.2 °F 56.3 °F 75% 30.13 in 10.0 mi Calm Calm - N/A   Clear
8:55 PM 62.4 °F 56.8 °F 82% 30.14 in 10.0 mi Calm Calm - N/A   Clear
9:15 PM 61.5 °F 59.9 °F 94% 30.14 in 10.0 mi Calm Calm - N/A   Clear
9:35 PM 60.3 °F 59.7 °F 98% 30.15 in 10.0 mi Calm Calm - N/A   Clear
9:55 PM 59.7 °F 59.0 °F 97% 30.15 in 10.0 mi Calm Calm - N/A   Clear
10:15 PM 59.0 °F 59.0 °F 100% 30.15 in 10.0 mi Calm Calm - N/A   Clear
10:35 PM 58.5 °F 58.5 °F 100% 30.14 in 10.0 mi Calm Calm - N/A   Clear
10:55 PM 58.3 °F 58.3 °F 100% 30.14 in 10.0 mi Calm Calm - N/A   Clear
11:15 PM 57.4 °F 57.4 °F 100% 30.15 in 10.0 mi Calm Calm - N/A   Clear
11:35 PM 57.9 °F 57.9 °F 100% 30.15 in 10.0 mi Calm Calm - N/A   Clear